Theta_e
299 288 285 286 287 290 291 292 293 293 291 292 290 288 287 285 285 288 288 290 291 287 286 286 287 287 288 289 291 292 293 292 291 291 292 293 292 292 292 293 293 293 293 296 296 297 296 297 297 297 297 297 298 298 298 299 299 299 299 300 300 301 303 303 303 305 305 305 306 309 310 313 320 321 325 329 330 331 332 332 332 332 331 331 331 330
296 287 286 289 291 291 292 293 294 292 292 289 288 287 285 286 284 288 288 291 292 287 285 287 286 286 287 289 290 292 291 290 290 290 291 292 293 292 292 292 292 293 295 295 295 295 295 296 296 296 296 297 295 296 297 297 297 298 298 298 299 300 301 301 302 303 304 305 305 305 306 309 311 311 313 315 317 318 322 326 330 331 331 331 331 330
286 284 288 291 293 294 294 294 294 291 291 291 288 287 285 286 288 288 289 290 290 288 284 287 285 286 287 289 290 290 290 291 292 291 291 291 291 291 291 291 292 292 292 293 294 294 295 295 295 295 295 296 296 296 296 297 297 297 297 297 298 299 299 300 301 302 302 304 304 305 305 306 306 308 310 311 311 313 315 317 320 323 326 331 331 331
282 285 289 292 294 294 293 293 294 291 291 289 288 286 284 286 284 281 287 289 289 287 284 286 284 285 288 290 290 291 291 291 292 292 292 292 291 290 291 291 291 291 291 291 292 292 294 294 294 294 294 295 295 295 296 296 296 296 296 296 297 297 298 298 300 301 301 303 303 304 304 305 305 305 307 308 309 309 309 310 313 317 320 323 325 330
284 288 292 292 292 292 290 291 290 289 287 288 290 287 285 286 286 286 285 287 289 289 289 286 283 283 286 285 287 290 292 291 291 291 291 292 292 292 292 292 292 291 291 291 291 292 293 293 293 294 294 295 294 294 295 296 296 296 295 295 296 296 297 298 299 299 300 300 300 301 302 302 302 303 303 304 304 305 306 307 307 309 313 318 320 321
286 290 293 291 291 291 290 288 288 289 286 287 289 290 288 288 286 286 287 286 284 283 288 285 277 278 284 285 286 288 289 288 289 289 289 290 291 291 290 290 291 292 292 291 290 291 292 293 293 293 294 294 293 294 295 296 296 295 295 295 295 296 296 296 297 298 299 298 298 298 298 297 297 298 299 300 301 302 302 304 305 307 308 311 314 316
287 290 292 290 289 289 288 287 289 291 286 285 286 292 291 289 287 286 286 286 280 278 287 289 278 275 283 283 285 287 288 288 289 289 288 289 289 289 289 289 289 290 290 291 291 291 291 292 292 293 293 293 293 293 295 295 295 295 295 294 294 295 295 296 296 297 298 296 297 296 297 297 297 297 298 301 302 301 302 304 303 305 306 308 309 311
289 288 288 289 288 287 285 284 288 290 287 284 293 293 291 289 287 287 287 286 284 288 287 287 283 276 276 282 286 287 286 286 287 288 288 288 288 288 288 289 288 289 289 290 290 290 291 291 291 291 292 293 293 294 294 294 294 294 294 293 293 294 294 294 295 296 296 295 295 295 296 297 296 297 297 299 300 301 301 301 302 303 305 306 307 309
288 285 285 285 286 285 284 287 290 291 288 287 292 295 290 290 289 290 288 285 285 283 278 281 284 276 276 280 285 285 282 284 285 287 288 288 288 288 288 288 288 289 289 289 288 289 289 290 291 291 291 292 293 293 293 293 293 293 293 293 293 292 293 293 294 295 294 295 295 294 295 294 295 297 298 299 299 299 299 300 301 302 303 303 305 306
289 288 287 287 285 282 287 289 291 291 286 291 293 294 292 293 291 289 285 284 283 280 275 280 282 274 275 280 281 283 282 282 284 286 288 289 289 288 288 288 289 289 289 289 288 288 288 290 290 291 292 292 292 293 294 293 293 293 292 292 291 291 292 293 293 293 293 293 294 293 293 293 293 295 296 297 296 296 297 298 299 300 301 301 302 303
289 295 293 287 284 287 288 289 292 292 292 293 293 290 289 289 287 287 285 283 281 274 276 283 282 279 271 277 279 279 281 283 284 285 288 289 289 289 289 289 289 288 288 288 287 288 288 289 290 291 291 291 292 292 292 292 293 292 292 291 290 290 291 291 292 292 291 292 293 293 293 293 293 293 294 294 293 293 295 295 297 298 298 299 299 300
286 287 287 288 290 290 290 289 292 294 292 289 288 285 284 283 285 283 282 282 274 272 277 280 281 281 269 272 280 282 284 285 285 284 286 287 288 289 289 289 289 288 288 288 287 287 287 288 288 289 289 290 290 290 290 291 291 291 291 290 290 290 290 291 291 291 290 291 292 292 292 293 293 293 293 292 291 292 293 295 295 296 296 296 298 298
281 282 286 288 291 288 286 287 287 290 290 287 284 282 276 275 277 274 277 272 273 272 278 279 281 275 275 277 281 283 284 285 286 287 287 288 289 289 289 289 288 288 288 287 286 286 287 287 287 287 288 288 288 289 289 290 290 290 290 290 289 289 289 290 290 290 290 290 290 291 291 292 293 293 293 292 292 292 292 293 293 293 293 294 295 296
278 284 284 285 287 289 288 281 280 282 285 285 282 279 274 271 269 268 271 274 273 276 278 278 280 274 276 279 284 283 285 286 287 288 288 289 289 289 289 288 288 288 287 287 286 285 285 286 287 287 287 287 287 287 288 288 289 289 289 289 288 288 289 289 289 289 289 289 290 290 291 291 292 292 292 292 292 293 293 293 293 293 292 293 293 294
271 272 279 283 278 287 286 285 283 282 283 283 285 282 277 274 269 266 269 266 269 273 277 280 273 269 272 275 284 285 287 287 288 288 289 289 290 290 290 288 287 287 286 285 285 285 285 286 286 286 287 286 286 287 287 287 288 288 288 288 287 287 287 288 288 288 288 289 289 289 290 290 290 290 290 291 292 292 292 293 292 292 293 292 293 293
274 274 281 287 285 286 284 288 289 284 282 284 286 286 279 275 278 272 274 273 271 272 272 273 272 275 276 282 284 286 286 286 287 287 287 287 289 290 289 288 287 286 286 286 285 285 285 285 285 286 286 286 286 286 286 286 287 287 287 287 286 286 286 287 287 287 287 288 288 288 289 289 289 289 289 289 290 290 291 291 291 291 292 293 293 293
276 273 282 286 287 285 284 287 287 288 274 282 282 275 280 285 281 275 277 279 276 272 269 275 275 278 281 283 284 285 284 285 285 285 284 285 286 288 288 288 287 287 286 285 285 284 284 285 285 286 285 285 285 285 285 286 286 286 286 286 285 286 286 286 286 286 286 287 287 287 288 288 288 287 287 287 288 289 289 289 290 290 291 292 293 293
273 274 281 282 281 285 287 287 287 288 287 282 276 278 285 285 278 275 270 272 271 268 270 274 272 274 274 272 283 283 282 283 284 283 283 284 284 285 287 288 287 286 286 285 285 285 285 285 285 285 285 285 285 284 284 285 285 285 286 285 285 285 284 285 285 285 286 286 287 287 287 287 287 287 287 287 287 288 287 287 288 289 289 290 291 292
278 270 275 282 283 285 286 286 283 286 289 283 280 284 279 274 273 276 274 267 265 264 267 273 275 275 276 276 279 280 281 282 283 284 283 282 283 284 286 287 287 286 286 285 284 283 284 283 284 284 284 284 284 285 284 285 285 285 284 284 284 284 284 284 285 285 285 285 286 287 286 286 286 286 286 287 287 287 286 286 286 287 288 288 289 289
280 272 275 282 282 284 282 280 272 277 285 287 287 282 281 277 274 271 272 272 272 266 265 268 273 270 280 279 281 281 283 283 283 283 283 282 283 283 285 287 286 285 285 285 283 283 284 284 284 284 284 283 284 284 284 284 285 284 284 284 284 283 283 283 284 284 284 285 285 285 285 285 285 285 286 286 286 286 285 285 286 286 286 286 287 288
276 279 269 277 284 281 274 278 275 277 276 278 278 276 278 277 277 276 274 272 270 268 268 266 265 272 278 283 283 283 283 283 283 283 284 284 283 283 284 286 286 285 285 284 284 283 284 283 283 284 284 284 284 283 283 284 283 284 284 283 283 283 282 282 283 283 284 284 285 284 284 284 284 284 285 285 285 285 284 285 285 285 286 286 286 287
274 275 271 275 276 275 276 281 280 279 279 277 276 274 276 275 271 267 266 276 271 270 268 266 266 273 281 285 284 283 283 284 284 284 285 285 283 283 284 285 286 285 285 283 283 283 284 284 283 283 283 284 283 283 282 283 283 283 283 283 282 282 282 282 283 283 284 283 284 283 284 283 283 284 284 283 284 284 284 284 284 285 285 284 285 286
279 274 274 270 273 274 279 282 284 281 281 280 279 276 277 275 274 271 265 266 270 271 272 269 267 270 281 283 283 284 284 284 285 285 285 285 284 283 283 284 286 285 284 284 283 283 283 283 283 283 283 283 282 282 282 282 283 283 282 282 282 282 282 282 283 283 283 283 283 283 283 283 283 283 283 283 283 283 283 284 284 284 284 284 285 285
286 272 272 272 277 279 280 279 278 277 278 279 279 279 278 274 274 273 272 272 271 269 269 270 266 271 281 283 284 283 284 284 284 284 285 285 285 284 283 284 284 285 285 284 283 283 283 283 283 282 282 282 282 282 282 282 282 282 282 282 281 282 282 283 283 284 283 283 283 283 283 283 283 282 283 282 283 282 283 283 283 284 284 284 284 284
272 273 272 270 271 273 274 274 277 276 276 274 275 278 278 279 278 276 272 272 269 270 268 268 266 271 280 283 284 284 283 283 284 285 285 284 285 284 283 283 283 285 285 284 282 282 282 282 282 282 282 281 282 281 281 282 282 281 282 282 282 282 282 283 283 283 283 283 282 282 282 282 282 282 282 282 282 282 282 282 283 283 283 284 284 284
275 271 271 268 265 263 263 265 266 269 272 276 278 277 278 277 276 275 270 270 268 271 272 267 267 277 281 282 282 283 283 283 284 284 284 285 284 284 283 283 283 284 284 284 282 282 281 281 281 281 281 281 281 281 281 281 281 282 282 282 281 282 282 282 282 282 282 282 282 282 281 281 281 282 282 282 282 282 282 282 282 283 283 283 283 283
273 272 270 268 268 269 271 272 277 279 273 269 271 276 277 278 278 277 275 270 270 270 267 271 273 275 277 279 280 282 282 282 283 283 284 284 284 284 283 283 283 283 283 284 282 281 281 281 280 281 281 281 280 280 280 281 281 281 281 281 281 281 282 282 282 281 281 282 281 281 281 281 281 281 281 281 281 282 282 282 282 282 282 283 283 282
275 272 272 273 272 271 276 276 277 278 273 273 272 272 276 277 277 273 269 269 275 269 267 275 276 275 276 279 281 281 283 283 284 283 283 283 284 284 284 283 286 282 282 282 282 281 280 280 280 280 280 280 281 281 281 280 281 281 281 281 281 281 282 283 281 281 281 281 281 281 281 281 281 281 282 281 281 281 281 282 281 282 282 282 282 282
272 271 270 271 269 274 276 276 277 276 275 275 275 274 272 276 275 270 269 276 274 268 269 275 275 273 277 279 281 282 283 283 283 284 284 284 285 285 283 282 281 281 281 281 282 281 280 280 280 280 280 280 280 280 280 279 280 280 280 280 281 281 281 281 280 280 280 280 280 280 281 281 281 282 282 281 281 281 281 281 281 281 281 281 281 283
274 272 272 273 270 271 272 275 275 272 272 272 273 275 276 275 274 274 274 276 274 273 274 276 276 276 279 280 282 283 285 284 285 285 284 283 283 283 283 281 281 281 281 281 282 282 281 281 280 280 280 279 280 280 279 280 280 280 280 281 280 280 281 280 280 280 280 280 280 281 281 281 281 281 281 281 281 281 280 280 280 281 280 281 281 281
274 273 276 270 268 269 272 276 276 274 272 272 274 276 276 276 275 276 274 275 273 274 275 275 275 275 280 282 283 284 284 284 284 282 282 283 283 283 283 282 281 281 281 281 281 282 281 281 280 279 279 280 280 280 281 281 281 280 280 280 280 281 281 280 280 280 280 280 281 280 281 281 281 281 280 281 280 280 280 280 280 280 280 280 280 281
274 272 271 271 270 268 271 272 272 273 272 272 272 273 273 273 271 273 274 276 275 273 273 273 271 274 279 282 283 283 283 283 282 282 282 283 283 283 282 282 281 281 281 281 281 281 281 281 280 280 280 280 280 280 280 281 280 279 280 280 280 281 281 280 280 280 280 280 280 281 281 281 281 280 280 280 280 280 280 280 280 280 280 280 280 280
274 273 272 272 269 268 271 274 271 270 269 269 268 273 274 275 276 277 278 278 279 278 274 270 273 278 280 284 282 283 283 282 282 282 282 283 283 283 283 282 282 281 281 281 281 281 281 281 281 281 280 280 281 281 281 281 280 280 280 280 281 281 281 280 280 280 280 280 280 280 280 280 280 280 280 280 280 280 280 279 279 279 279 279 280 280
275 274 272 274 269 268 268 269 271 268 265 269 276 280 278 275 276 274 275 277 279 280 278 279 279 281 281 282 281 281 282 282 283 284 285 284 282 282 282 282 282 282 282 282 281 281 281 281 281 281 281 281 281 281 281 281 280 281 280 281 281 280 281 280 280 280 280 280 280 280 280 280 280 280 280 280 280 280 279 279 279 279 280 280 280 279
274 274 272 272 270 268 270 271 269 263 266 276 279 280 281 280 279 277 278 278 280 281 280 279 279 280 281 282 283 283 284 285 285 284 284 283 283 282 282 282 282 282 282 281 281 281 281 281 281 280 280 280 281 281 281 281 281 281 281 281 280 281 280 280 280 280 280 280 280 280 280 280 280 280 280 280 280 280 279 279 279 279 279 279 279 279
274 273 273 272 272 271 270 269 264 265 274 279 280 281 281 280 277 277 276 279 280 280 281 280 281 282 283 283 284 284 285 284 283 282 282 283 283 282 282 282 283 283 282 281 280 281 281 280 280 280 280 281 281 281 281 281 282 281 281 281 280 280 280 280 280 280 280 280 280 280 280 280 280 280 280 280 280 279 279 279 279 279 279 279 279 279
279 275 273 270 272 267 268 268 269 275 274 275 277 277 278 276 276 275 270 274 279 281 281 280 281 281 282 283 283 284 283 280 278 280 282 282 284 284 284 284 284 283 282 281 281 281 282 281 281 281 281 281 281 282 282 282 282 281 281 280 281 280 280 280 280 280 280 280 280 280 280 280 280 280 280 280 279 279 279 279 279 279 279 279 279 278
279 274 276 271 270 272 268 266 266 266 264 269 277 280 282 281 280 277 273 273 279 281 282 281 280 281 282 282 282 281 279 277 277 279 281 283 284 284 284 284 283 282 281 281 281 280 280 281 281 281 281 281 281 281 282 282 282 281 280 280 280 280 280 280 280 280 280 280 280 280 280 280 280 280 280 280 279 279 279 279 279 279 279 278 278 278
279 280 278 275 271 270 268 265 263 262 266 276 277 279 281 281 281 279 272 271 277 280 281 281 279 281 281 281 280 281 278 275 276 278 282 281 281 282 281 281 281 281 281 281 281 280 280 281 281 281 281 281 281 282 282 282 281 281 280 281 280 280 280 280 280 280 280 280 281 280 281 280 280 280 280 279 279 279 279 279 279 279 279 278 278 278
275 275 275 272 271 270 268 266 265 268 269 274 278 278 280 280 281 274 267 268 277 279 281 280 280 279 280 279 279 278 277 275 277 279 281 282 281 281 280 280 280 281 281 281 281 281 281 281 280 280 280 281 281 282 282 281 281 281 281 281 280 280 280 280 280 281 281 281 280 280 280 280 280 280 280 279 279 279 279 279 278 278 278 278 278 278
272 273 274 270 271 272 272 269 270 272 278 279 278 278 279 280 277 266 266 273 278 279 280 281 280 280 280 278 278 278 280 282 283 282 280 280 280 281 281 281 281 281 281 281 281 283 281 281 281 281 281 281 282 282 282 282 281 280 280 280 280 280 280 281 281 281 281 281 280 280 280 280 280 279 279 279 279 279 279 279 278 278 277 277 277 277
271 273 273 273 271 270 270 269 269 272 278 281 279 281 280 276 267 267 277 279 279 279 279 280 280 280 279 279 279 280 282 282 282 281 280 281 281 281 281 281 281 281 281 281 282 282 281 281 280 280 281 281 281 281 281 281 280 280 280 280 279 280 281 281 281 281 280 280 280 280 280 279 279 279 279 279 279 278 278 278 278 278 277 277 277 276
271 268 268 268 270 270 269 267 267 264 273 281 280 279 278 272 274 278 278 278 280 279 279 280 280 280 279 279 280 281 281 281 280 281 281 281 281 281 281 281 281 281 281 281 280 281 281 281 281 281 281 281 280 281 280 279 279 280 280 279 280 281 281 281 281 280 280 279 279 279 279 279 278 278 279 278 278 277 277 277 277 277 277 276 276 276
273 268 268 270 273 267 266 265 267 274 277 282 281 275 278 280 281 279 280 279 280 280 279 279 279 280 280 280 280 280 280 280 280 280 280 280 280 280 280 280 280 280 280 280 280 280 280 280 281 281 281 281 280 280 280 280 279 280 279 279 281 280 280 280 279 279 279 278 278 278 278 278 278 278 278 278 277 277 276 276 276 276 276 276 275 275
277 274 275 272 274 274 271 273 278 279 280 283 282 281 282 283 283 280 280 280 280 280 279 280 280 280 280 280 280 280 280 280 280 280 280 280 280 280 279 280 280 280 280 280 281 281 281 280 280 280 280 280 279 280 280 279 279 278 278 280 280 279 279 279 278 278 278 277 277 277 277 277 277 277 277 277 277 276 275 275 275 275 275 275 275 275
277 280 277 274 276 279 280 281 282 280 279 281 283 282 281 281 281 281 281 281 280 281 281 281 281 281 281 280 280 280 280 280 280 280 280 280 279 280 280 280 280 280 280 280 280 280 280 280 280 279 279 280 280 280 280 280 279 278 279 280 279 279 279 278 277 277 277 277 277 277 277 276 276 276 276 276 276 276 276 275 275 275 275 275 275 275
277 277 276 275 275 273 271 276 279 281 282 282 282 283 282 282 283 282 282 282 282 282 281 281 281 281 281 281 280 280 280 280 280 280 280 280 280 279 279 279 280 280 280 280 280 280 280 279 279 279 278 279 280 280 280 278 278 279 279 279 279 278 278 277 277 276 276 276 276 276 276 275 275 275 276 276 276 276 275 275 275 275 274 274 274 274
275 278 276 277 276 274 275 277 278 279 279 280 281 281 280 282 282 281 282 282 282 282 282 282 281 280 279 280 280 280 280 280 279 280 280 280 280 280 280 280 279 279 279 280 280 279 279 278 278 278 278 279 280 280 279 278 278 278 278 278 278 277 277 276 276 275 275 275 275 275 275 275 276 275 274 275 275 274 275 275 275 274 274 274 274 273
276 277 272 274 274 276 278 279 280 280 280 281 282 282 282 283 283 282 282 282 281 281 281 281 280 281 280 280 280 280 279 280 280 280 279 279 279 279 279 280 280 280 280 279 279 279 279 278 278 278 278 279 279 279 278 277 278 278 277 277 277 276 275 275 275 275 274 275 275 274 275 275 274 274 274 274 274 274 275 274 274 274 274 276 276 275
275 274 278 275 274 274 274 278 278 274 275 278 279 281 282 282 281 281 281 280 280 280 280 280 280 280 280 280 280 280 279 280 280 279 279 279 279 279 279 279 279 279 279 280 280 279 278 277 277 278 278 279 279 278 278 277 277 277 277 277 276 276 275 275 275 274 274 274 274 274 274 273 273 274 273 273 273 273 274 276 277 277 275 275 277 278
277 278 277 274 274 275 279 280 280 280 280 281 281 281 281 281 280 279 280 280 281 281 281 280 280 280 280 280 280 279 279 279 279 279 279 279 280 280 280 279 279 279 280 279 278 278 277 277 277 277 277 278 278 278 277 276 276 276 277 276 276 276 275 274 274 273 273 273 273 273 273 273 273 273 273 273 273 273 273 273 275 278 279 279 277 278
Wind_Speed
2 9 5 1 5 4 8 9 7 9 8 10 17 19 18 18 15 15 15 15 22 23 16 18 20 19 18 16 15 14 14 16 16 15 13 11 11 12 12 13 12 13 12 8 9 11 13 14 13 12 12 12 13 15 17 16 17 17 15 15 18 15 15 15 14 13 12 13 13 12 13 11 11 11 12 10 9 8 7 6 6 5 6 7 7 4
1 10 8 7 6 8 10 8 11 9 11 22 17 19 14 17 15 10 10 6 17 23 13 17 23 20 17 16 14 13 17 17 14 14 14 13 12 11 12 13 12 9 7 9 11 13 13 13 14 13 12 15 18 16 16 16 15 15 17 16 15 14 15 15 15 12 12 12 10 10 10 10 10 12 12 12 12 12 12 14 12 8 7 7 7 7
10 9 6 8 13 6 11 11 14 10 22 17 14 14 15 12 16 17 16 15 18 23 13 17 23 17 17 15 14 15 15 12 12 12 12 12 12 11 10 10 10 11 11 13 13 12 12 13 14 13 13 13 14 14 15 14 15 16 16 15 14 14 14 14 15 13 12 11 12 11 10 11 9 9 10 10 11 12 14 13 13 13 14 13 8 8
9 10 13 11 4 9 10 17 12 17 13 9 13 12 13 14 16 9 10 8 7 14 13 15 20 13 13 14 15 12 11 11 11 11 11 10 12 12 11 10 10 11 12 14 14 15 13 13 12 12 13 13 12 13 14 15 15 14 14 15 14 14 14 13 14 13 12 12 11 10 10 9 9 8 9 10 12 15 18 16 14 12 13 14 15 14
10 12 11 8 12 9 11 14 15 11 12 12 6 13 13 10 10 17 13 18 22 18 22 22 17 12 9 9 10 11 10 10 9 9 9 8 9 8 7 9 11 13 12 12 13 13 13 14 15 14 13 12 14 14 14 14 15 12 15 15 14 13 14 13 15 15 12 12 12 11 10 11 13 14 14 14 15 14 13 14 17 16 14 14 13 14
16 19 10 14 14 14 12 13 16 7 10 8 8 7 11 15 21 21 22 18 11 10 4 13 9 7 7 10 9 8 7 10 7 8 9 9 8 7 9 10 9 10 10 12 12 12 11 11 11 13 14 14 14 14 13 12 13 14 13 15 14 12 13 14 15 15 13 12 13 14 15 16 14 13 15 15 15 15 15 14 14 15 17 16 15 14
7 16 15 14 12 12 14 13 15 8 6 7 3 8 10 18 21 20 15 10 8 8 7 10 14 7 5 9 8 7 9 10 8 9 8 8 8 8 9 9 9 10 10 10 10 11 12 12 12 12 13 13 13 12 11 11 12 14 13 14 14 13 12 13 15 16 13 14 13 15 14 12 12 11 10 10 11 11 12 11 14 14 16 16 17 17
11 16 16 14 12 12 13 12 12 8 7 5 1 7 17 20 17 15 13 6 6 9 14 13 11 12 6 6 6 8 8 8 9 9 8 7 8 9 8 9 8 9 9 9 11 12 11 12 12 13 12 12 12 10 11 11 11 13 14 13 14 12 13 13 13 14 15 13 14 15 14 13 13 13 12 12 11 10 11 12 13 13 13 16 16 16
10 11 13 13 11 11 9 7 8 7 5 1 5 3 18 17 12 7 5 9 9 13 9 9 9 9 4 5 4 3 5 5 7 7 7 7 6 7 8 8 8 8 8 9 9 11 11 12 11 11 11 12 11 12 12 11 11 11 12 12 13 13 13 13 15 15 16 14 13 12 12 13 12 12 11 10 10 11 12 13 13 13 13 14 15 16
3 6 7 7 9 7 6 8 5 7 4 4 7 3 8 4 7 10 8 8 4 9 6 4 4 7 5 2 4 3 3 4 4 5 5 6 6 6 6 6 7 6 6 7 9 9 9 9 10 9 9 10 10 10 10 10 9 11 11 13 14 15 13 13 14 14 15 15 14 14 14 15 14 13 12 11 13 14 13 13 14 13 13 13 13 15
4 1 3 10 9 7 7 6 5 4 3 3 4 5 5 4 5 8 5 5 8 9 6 4 7 9 4 2 1 2 1 2 3 3 3 4 5 6 5 7 6 6 6 7 6 7 8 8 8 9 10 10 10 9 10 10 10 10 11 12 13 14 12 13 14 15 15 13 14 13 14 15 15 16 13 15 16 15 16 15 15 15 13 12 13 13
12 10 7 4 12 9 2 4 5 4 4 3 1 3 4 3 7 5 4 4 6 2 1 8 9 6 7 2 2 3 3 2 3 3 3 4 5 5 5 5 6 6 6 5 6 6 6 6 7 8 9 11 11 11 11 10 10 10 11 12 13 14 14 12 12 13 14 13 13 13 14 15 15 15 13 16 16 16 16 15 15 14 13 14 13 13
12 11 7 8 7 16 10 3 8 7 10 3 3 4 4 3 2 3 1 4 4 2 1 1 2 7 7 3 4 3 3 3 3 3 3 3 4 5 5 5 4 4 5 6 6 6 7 7 8 8 8 8 10 10 11 11 10 10 11 13 13 14 14 13 12 13 13 12 13 14 14 13 12 13 14 14 13 15 14 14 15 16 15 14 14 15
5 7 17 12 7 12 10 8 8 7 11 8 7 3 3 4 2 3 3 2 2 3 3 6 8 5 2 1 2 3 2 3 3 4 3 3 4 4 5 4 5 4 4 4 4 5 5 6 6 6 7 8 8 9 10 9 9 8 9 11 12 12 12 12 12 13 13 13 12 12 12 12 11 12 13 12 12 13 11 12 14 14 14 14 15 16
6 7 11 11 6 10 7 5 2 3 5 5 3 2 2 3 1 3 2 3 4 3 2 5 2 3 5 4 4 3 4 3 2 4 4 3 4 4 4 5 5 4 4 4 4 4 5 5 5 6 6 6 7 8 8 8 8 8 8 10 10 10 11 11 11 10 12 11 11 11 11 11 10 11 11 11 11 11 12 12 12 12 12 12 14 14
5 3 4 4 4 5 7 5 2 3 3 3 2 6 4 2 3 3 0 5 4 4 2 4 1 2 2 1 1 3 4 3 4 4 3 3 3 3 3 4 3 3 3 3 3 3 4 4 4 4 5 5 6 7 7 8 7 7 8 9 9 10 9 10 10 10 9 9 9 10 10 11 11 10 9 9 10 10 11 12 12 13 13 12 12 13
2 6 4 5 5 6 7 5 5 5 2 3 4 3 1 2 1 2 6 5 7 5 2 1 1 1 3 0 3 3 4 4 4 4 4 2 2 3 3 3 2 2 2 2 2 3 3 3 4 3 4 4 4 4 6 6 6 7 7 7 8 8 8 10 10 10 9 9 9 10 9 10 10 10 11 12 12 12 11 11 11 11 12 12 12 12
1 1 3 6 8 7 7 3 2 10 4 1 4 3 2 1 4 2 2 1 1 4 1 2 3 1 2 1 4 4 4 4 4 5 4 3 2 2 2 3 2 1 2 2 1 1 2 3 3 3 4 4 4 4 4 4 4 4 4 5 6 6 8 8 8 9 9 9 9 9 9 10 10 10 11 10 11 10 11 11 11 11 12 13 13 12
2 1 3 6 4 5 11 6 4 11 10 6 2 3 2 2 2 4 2 1 2 1 2 2 3 4 7 3 5 7 7 5 5 4 4 3 2 1 2 2 3 1 1 1 2 1 2 3 3 2 3 3 4 4 3 4 4 4 4 4 4 5 5 5 5 5 5 5 5 6 7 8 8 9 9 9 9 9 11 12 12 12 12 13 14 14
2 1 1 3 8 1 5 7 7 9 12 6 0 5 1 3 1 2 1 1 0 2 2 1 2 2 4 6 10 9 6 5 4 4 4 3 3 1 1 1 2 0 1 0 1 1 1 2 2 3 3 3 4 3 3 4 4 4 4 4 4 4 4 4 5 5 5 5 5 6 5 5 5 6 7 8 9 10 11 11 11 12 13 13 12 13
2 2 1 4 8 6 5 6 4 6 7 10 10 7 6 3 1 1 2 2 1 1 3 2 1 1 2 3 7 7 6 5 4 3 3 2 3 3 1 1 2 1 0 0 0 1 1 2 2 3 2 2 3 2 3 4 4 4 4 4 4 5 5 4 5 4 5 5 5 6 6 6 6 7 7 7 8 8 9 10 10 11 11 11 12 13
3 6 3 3 6 6 1 0 1 3 3 2 3 4 5 5 5 3 1 1 1 1 0 1 1 1 1 2 4 4 4 4 3 2 1 2 3 2 1 0 1 1 0 0 0 1 1 1 1 2 2 2 3 3 4 4 4 4 4 4 4 4 4 4 5 5 5 5 5 6 6 6 5 5 7 6 7 8 9 9 10 10 12 12 12 12
1 2 1 3 1 1 2 1 0 3 1 2 5 4 4 2 1 1 2 2 1 0 0 1 0 1 1 1 3 4 3 4 3 2 2 2 3 3 2 1 1 3 1 1 0 1 1 1 1 2 2 2 3 4 3 4 4 4 4 4 4 4 5 4 5 5 5 5 6 6 6 6 6 6 7 7 7 8 9 8 9 9 11 12 12 12
3 3 3 1 2 2 1 0 3 1 1 1 4 5 6 4 2 1 0 0 0 0 1 0 1 2 2 1 2 2 3 1 2 4 4 3 2 3 1 1 1 2 1 1 1 1 2 1 1 2 2 3 4 3 4 4 4 4 4 4 4 5 5 5 5 5 5 6 6 6 6 6 6 7 7 8 7 8 9 9 8 9 10 11 11 13
3 2 1 2 0 0 1 1 1 1 1 3 1 3 4 4 5 1 0 1 2 0 1 1 1 1 2 1 1 2 2 4 4 5 5 4 3 3 2 1 1 1 2 2 2 1 2 1 2 3 3 3 4 4 4 4 4 4 5 4 4 5 5 5 5 5 6 6 7 7 7 7 6 7 8 8 7 9 9 9 9 9 10 11 12 12
2 2 3 3 3 3 3 3 5 6 4 2 1 3 3 3 5 5 1 2 1 1 1 1 2 0 1 3 3 4 5 5 5 5 4 4 4 3 2 2 2 2 3 4 3 1 2 3 3 3 3 3 4 4 4 4 4 4 5 5 4 5 5 6 5 5 6 6 7 7 8 7 7 8 8 8 8 8 8 9 9 10 10 10 12 13
1 2 3 3 1 0 0 0 1 1 3 1 4 3 3 3 1 1 1 1 0 1 1 5 2 2 3 6 5 7 6 7 6 5 5 5 4 4 3 2 2 3 4 5 4 3 3 3 4 4 4 4 4 4 4 4 5 5 5 5 5 5 6 6 5 6 6 7 7 7 7 7 7 8 7 7 7 7 7 8 8 9 10 10 11 12
0 1 2 2 3 3 3 4 3 4 2 3 2 2 1 2 0 0 1 2 1 2 6 0 4 2 4 2 6 8 6 6 7 5 4 3 4 4 2 2 4 4 4 4 4 4 4 4 4 4 4 4 5 5 5 5 5 5 5 6 5 5 6 6 5 6 6 7 8 7 8 8 7 8 8 7 7 7 7 7 8 8 8 8 10 11
1 1 3 4 6 6 6 7 6 4 3 3 4 4 3 3 2 3 4 4 1 3 9 1 5 5 7 6 6 4 3 6 4 4 4 2 1 1 1 4 4 4 5 5 5 4 4 5 5 5 5 5 5 6 6 6 5 5 5 5 6 6 7 7 5 6 7 7 8 8 8 8 7 8 8 8 8 8 8 8 8 8 8 8 9 9
0 2 2 2 7 6 5 5 3 4 2 4 5 6 5 5 6 6 7 5 5 8 8 10 9 12 14 12 9 10 8 4 2 1 1 1 3 4 5 5 4 5 5 5 5 5 5 5 5 5 5 5 6 6 6 6 6 5 6 7 6 7 8 6 6 6 8 9 9 8 8 9 8 9 9 9 9 9 8 8 9 9 9 10 9 9
2 0 1 1 2 4 1 1 1 3 3 9 7 8 8 7 6 7 5 6 6 8 10 10 10 14 14 5 7 8 7 4 2 3 4 5 5 6 5 5 5 5 5 6 5 6 6 6 5 5 6 6 6 7 7 7 6 6 6 6 7 8 7 6 7 7 8 10 9 9 9 9 9 9 10 10 10 9 9 10 10 10 10 11 10 11
3 0 1 0 4 3 1 0 2 4 6 10 15 11 10 7 7 6 7 6 6 8 1 1 4 10 10 3 7 6 4 4 4 4 4 5 5 5 5 5 5 5 5 6 6 6 6 6 6 6 6 6 7 7 7 7 6 6 7 7 7 8 7 7 7 9 10 10 10 10 10 10 11 11 11 11 11 11 10 10 10 11 12 12 12 12
1 2 2 2 2 2 2 2 3 8 8 6 3 4 9 11 7 3 5 6 10 6 4 5 10 5 3 1 2 1 1 4 4 4 5 5 5 5 6 5 5 5 6 6 6 6 7 7 7 7 6 6 7 7 7 7 7 8 8 7 8 8 8 8 9 10 11 10 10 11 11 11 11 12 12 12 12 11 10 11 12 13 13 13 13 12
1 1 1 0 0 3 4 4 1 3 3 2 2 2 3 6 10 10 7 9 10 10 8 6 9 4 3 1 3 4 4 5 5 6 6 5 4 4 4 5 5 6 6 6 6 7 7 7 7 6 6 6 7 7 8 7 8 9 7 8 7 7 9 9 10 10 11 11 11 11 11 11 12 13 13 13 12 11 11 12 13 13 13 13 13 13
1 1 1 1 0 3 4 6 1 1 6 2 3 4 6 8 9 13 10 8 7 11 11 11 11 8 8 6 6 7 6 6 5 4 2 2 2 4 5 6 7 7 7 7 6 6 6 7 7 6 6 6 7 7 7 8 7 8 7 7 8 9 9 9 11 12 11 11 11 11 11 12 12 13 13 14 13 13 13 14 14 14 13 13 13 14
1 0 2 2 2 2 1 2 3 6 4 10 5 2 3 3 3 2 6 9 10 10 13 14 14 12 9 9 8 6 9 6 1 3 4 3 3 5 6 9 9 7 7 6 5 6 7 7 7 7 8 6 6 7 7 9 8 8 9 7 8 9 9 10 12 12 11 11 11 12 12 12 13 13 14 14 14 14 15 15 15 16 15 14 14 13
0 1 0 2 1 1 1 1 7 8 14 4 2 1 1 1 1 1 4 6 6 7 9 10 9 7 6 6 5 6 1 2 3 7 4 4 7 9 10 10 7 7 6 6 5 7 7 7 7 8 7 7 7 8 9 9 8 8 9 9 9 9 10 11 12 12 11 11 12 12 12 12 13 14 15 15 15 16 16 16 17 16 13 14 14 15
2 1 3 1 1 1 1 5 3 1 2 4 2 0 1 2 5 4 1 9 4 10 8 7 6 5 4 3 4 2 3 3 9 9 5 9 8 7 6 6 5 5 6 7 6 6 7 7 7 7 7 8 8 9 9 9 9 9 9 10 10 10 10 11 12 11 11 12 12 12 12 12 13 15 15 15 16 17 17 16 15 14 12 13 15 16
2 4 2 1 2 4 0 1 2 2 8 3 5 3 1 0 1 0 2 10 2 3 4 5 3 1 3 4 5 0 1 7 12 7 4 3 2 2 4 5 6 7 7 8 8 9 8 8 8 8 7 8 10 11 10 10 10 9 10 10 10 10 11 12 12 12 12 12 11 12 12 13 13 14 15 16 17 17 17 17 15 13 13 13 14 16
1 1 2 2 4 3 0 2 5 5 7 3 5 4 4 3 1 3 6 6 1 1 3 5 5 4 3 4 5 4 6 11 12 5 2 3 3 3 4 5 6 7 8 9 8 8 9 7 6 7 8 10 12 10 10 10 10 9 10 10 9 10 12 12 12 12 11 11 12 12 12 12 14 15 15 17 17 16 16 14 14 14 15 15 14 15
2 2 4 6 3 6 8 5 4 7 7 5 8 5 4 1 3 2 8 7 4 2 2 2 4 3 3 5 4 8 8 10 10 6 4 4 5 7 6 6 7 7 8 8 10 9 8 8 7 9 10 10 10 9 9 9 9 9 9 9 9 12 12 12 11 12 12 12 13 13 14 13 13 16 16 15 16 15 14 14 15 15 15 16 16 16
2 1 2 2 6 7 5 6 8 9 11 9 5 13 6 3 1 8 7 2 6 5 4 4 5 5 5 6 6 8 9 8 8 6 6 6 7 8 7 8 8 8 7 8 10 9 9 7 7 9 9 9 9 8 8 8 10 10 9 9 12 13 11 11 12 12 12 13 13 14 14 14 14 13 13 13 14 15 16 15 15 15 16 15 16 18
5 4 5 4 4 1 3 3 5 7 4 7 12 5 2 3 8 4 1 1 4 6 5 5 6 6 5 7 7 9 9 8 7 8 8 8 8 9 10 9 10 11 11 10 10 9 10 10 10 10 10 8 8 7 8 7 10 11 10 12 13 11 11 11 11 12 12 12 13 13 14 13 14 14 12 13 14 15 16 15 15 16 15 16 18 18
4 1 3 5 6 4 6 6 9 8 3 11 15 7 8 14 4 4 1 4 3 5 4 5 6 6 6 7 8 8 8 9 9 8 9 8 8 9 9 9 9 9 9 9 9 10 8 9 10 11 10 8 7 7 7 7 10 11 10 13 11 9 10 10 10 10 12 12 13 13 13 13 14 13 13 14 15 15 16 16 15 15 14 15 16 16
10 8 5 4 4 7 8 10 6 1 8 12 9 5 6 13 8 4 2 4 5 6 4 4 6 6 6 7 8 8 9 7 9 8 10 10 9 9 10 10 10 11 11 11 12 11 9 10 12 11 10 8 7 8 8 6 9 10 12 11 9 9 10 11 11 12 13 13 13 13 13 13 13 14 14 14 14 15 14 15 15 15 15 15 15 15
3 9 2 2 7 6 13 10 7 5 4 9 11 7 4 2 5 5 6 7 5 7 5 8 8 8 7 6 8 8 8 9 10 10 10 9 9 9 9 9 9 9 10 10 10 10 10 10 10 9 10 10 8 9 8 7 6 9 11 10 9 10 11 12 12 13 13 13 13 13 14 14 15 15 15 15 13 13 13 14 15 15 15 14 14 15
7 3 2 6 1 3 11 3 15 18 16 12 11 9 7 7 9 8 8 8 8 7 8 7 8 7 8 7 9 11 11 10 11 11 10 10 10 10 10 10 10 10 11 12 12 9 10 8 10 10 9 11 11 10 8 6 6 7 8 10 10 11 11 11 11 13 13 14 13 13 13 15 13 13 14 13 12 12 13 13 14 15 15 14 15 15
7 4 8 14 12 10 15 4 6 6 5 6 8 7 6 8 8 7 8 7 8 7 7 9 7 8 5 8 9 10 12 10 11 12 10 10 10 10 10 10 11 10 10 10 10 9 8 8 8 9 9 12 12 9 7 6 7 8 10 10 10 9 9 10 11 12 13 14 13 12 13 13 16 17 13 13 13 14 14 14 14 14 15 15 15 15
3 4 7 3 4 9 10 17 23 14 14 17 17 13 12 12 13 12 11 10 9 8 8 7 6 8 7 10 9 9 11 12 11 12 11 11 11 10 10 11 10 11 11 10 9 6 8 7 8 9 10 12 10 8 7 7 9 9 9 9 9 9 9 11 12 13 14 13 12 13 13 13 13 13 14 14 15 14 14 14 14 15 15 17 15 13
2 12 13 2 13 13 13 18 4 6 9 5 8 13 13 12 9 10 8 7 7 9 8 8 8 7 9 9 9 10 12 13 12 10 11 12 12 11 11 11 10 10 10 9 8 7 7 6 6 8 10 11 8 8 8 9 9 7 7 9 9 9 10 12 13 13 13 11 12 13 13 12 13 14 14 14 14 15 15 18 22 20 17 17 21 30
11 21 6 8 10 17 10 8 6 9 12 7 6 4 4 3 2 4 6 7 8 8 8 9 11 10 9 10 8 10 12 12 12 10 11 10 11 11 11 10 11 11 11 9 7 7 6 7 6 7 9 10 9 8 7 7 7 10 11 10 9 9 11 12 12 11 12 12 12 13 14 14 14 14 13 13 14 14 15 15 15 23 31 30 28 30
Wind_Direction
43 89 73 129 29 312 297 286 263 268 183 114 86 101 103 101 91 96 99 99 97 83 72 87 84 78 71 67 67 69 74 71 66 64 59 52 50 49 50 53 52 48 43 33 34 36 36 32 26 27 26 25 28 27 24 26 25 24 23 21 26 18 16 18 14 16 16 15 7 5 7 356 356 1 357 356 356 342 320 299 296 292 293 306 310 284
263 63 37 12 311 290 284 283 268 220 115 102 103 105 106 106 113 116 95 78 90 94 87 86 81 73 72 67 65 64 65 64 69 72 68 63 55 51 50 52 51 53 51 37 38 33 32 29 28 26 26 23 27 22 23 26 25 22 21 24 22 19 17 19 16 12 15 15 12 7 6 358 7 11 7 4 7 360 358 354 340 320 305 294 293 293
50 46 21 332 286 305 25 343 352 128 110 105 111 108 110 105 99 88 96 103 97 92 96 88 84 76 74 74 67 63 69 72 72 73 76 72 67 58 51 50 49 44 39 37 36 32 30 29 29 28 26 27 27 22 23 22 23 23 23 21 19 19 18 17 14 12 14 8 9 9 8 12 9 18 14 10 5 5 4 357 356 353 347 332 307 286
39 3 338 309 42 60 51 22 22 66 54 89 120 127 116 131 123 123 104 95 73 107 112 87 80 76 80 75 74 73 72 78 78 80 79 74 72 68 58 47 44 43 37 35 30 27 25 28 28 28 27 24 22 22 21 21 23 22 22 19 19 20 18 15 14 11 9 7 5 8 7 9 23 14 6 12 12 11 7 1 354 352 350 348 347 332
37 343 322 26 48 41 41 35 24 62 76 43 51 116 127 128 115 119 110 98 94 101 115 96 79 67 40 62 73 69 68 74 67 69 70 71 76 78 73 60 49 45 37 35 30 28 23 23 25 23 23 21 24 22 19 18 21 20 19 18 18 20 17 14 11 11 5 6 11 8 8 13 15 19 16 10 13 9 2 358 3 354 349 349 348 347
18 354 3 36 26 27 33 35 18 32 80 83 50 18 124 122 110 111 124 122 124 139 183 103 82 71 87 75 65 65 70 65 63 68 62 60 61 57 56 53 52 51 43 38 34 29 27 26 23 23 23 24 23 23 17 17 20 19 18 18 18 19 18 15 12 9 9 12 13 11 13 14 14 13 12 11 4 357 1 358 350 352 356 353 351 351
3 2 17 27 28 28 31 37 13 2 78 87 17 340 132 116 121 132 133 124 129 146 166 108 111 109 131 99 98 95 76 74 67 62 62 58 49 50 50 50 45 41 40 38 37 31 28 24 25 27 28 23 23 21 16 18 21 20 18 19 17 18 17 14 12 11 11 15 16 17 16 17 14 11 12 2 2 358 355 353 354 354 355 358 356 355
357 15 14 16 26 32 36 21 353 354 74 38 322 310 120 128 135 144 149 149 119 78 62 80 107 123 113 89 103 100 89 81 72 66 61 56 58 50 51 53 47 40 36 33 30 30 28 25 23 26 25 24 22 17 17 19 20 19 18 20 19 17 17 15 13 16 16 16 15 15 14 13 13 9 1 358 360 356 353 355 357 355 354 357 358 355
19 21 14 12 14 34 32 346 343 3 55 23 322 350 136 145 140 85 41 92 97 95 87 102 118 91 88 108 60 52 89 76 71 68 64 62 57 58 54 46 48 44 34 32 30 28 24 22 23 23 26 24 22 21 19 18 19 19 17 20 20 21 19 15 14 16 16 17 17 16 13 13 11 4 0 355 360 358 357 358 357 359 355 356 355 357
37 36 17 18 29 17 336 334 353 2 60 353 343 38 114 100 93 80 56 55 66 94 119 123 92 96 95 97 112 89 50 77 81 74 72 68 61 59 57 51 44 43 40 30 32 27 22 20 21 22 24 25 23 20 19 17 17 20 17 18 21 21 19 15 15 17 16 16 15 16 13 13 8 5 3 3 2 1 358 360 359 357 357 355 353 356
52 110 51 40 6 334 335 313 8 20 52 308 319 71 98 129 95 103 91 86 67 50 5 333 134 126 127 117 33 61 58 44 98 80 79 73 69 58 58 55 44 38 36 34 29 28 22 16 17 17 22 22 21 19 18 18 16 18 20 17 22 21 17 14 15 14 16 15 17 15 13 12 8 5 4 4 5 1 360 1 359 358 356 354 352 351
44 31 31 17 15 356 357 328 1 353 330 45 359 111 111 54 95 91 91 73 76 74 73 47 64 67 113 153 131 106 100 55 70 84 68 78 74 67 55 57 50 42 32 30 29 22 21 18 19 17 18 16 17 18 19 18 16 17 18 17 20 21 18 16 15 16 15 15 15 15 13 11 10 7 4 6 4 0 358 357 355 354 352 353 351 351
50 39 15 28 28 22 346 340 5 9 10 8 83 85 88 127 86 113 100 44 47 119 199 9 90 49 40 89 130 116 115 90 67 69 63 68 77 76 63 54 60 42 29 27 23 17 14 16 12 14 15 15 14 17 13 13 14 14 16 16 18 19 15 15 13 16 16 16 16 12 11 12 8 10 8 4 1 359 356 355 355 354 354 352 352 353
66 44 24 358 13 11 22 39 347 5 344 13 36 349 121 141 154 122 69 84 70 23 19 75 66 81 87 28 140 129 90 77 75 82 74 64 74 77 67 61 53 43 37 27 24 17 17 17 11 13 10 9 11 12 12 10 13 13 15 15 19 16 14 12 13 14 16 17 16 13 13 10 9 11 6 5 1 357 357 356 353 353 353 349 349 346
30 357 12 358 5 347 25 45 108 254 313 319 327 46 61 36 119 119 149 160 169 145 5 337 30 189 151 206 127 118 99 109 86 91 83 69 76 69 86 63 51 36 29 29 22 17 19 14 15 13 7 4 9 7 6 7 9 7 13 13 13 14 13 13 12 12 16 14 13 12 13 12 12 12 6 6 2 355 356 357 352 352 349 347 347 346
61 96 332 358 59 355 11 356 345 305 306 288 22 21 45 6 314 93 68 103 109 126 68 7 47 41 115 44 77 113 141 122 129 93 76 67 73 88 81 74 55 43 29 32 20 16 15 20 18 13 7 3 5 4 360 4 2 7 9 8 9 9 9 9 10 13 13 11 10 10 11 11 11 9 6 4 2 1 0 355 352 349 348 345 341 339
29 30 341 336 40 30 360 343 9 6 74 297 19 39 284 260 352 89 43 60 83 53 45 92 31 37 82 126 172 190 145 136 119 116 96 74 92 93 98 96 86 42 48 23 18 18 10 12 18 17 11 5 5 6 4 358 358 1 0 5 3 4 5 8 7 7 8 5 8 8 7 8 8 8 7 3 358 0 1 356 353 349 345 342 341 338
36 167 333 19 360 5 0 311 31 28 1 17 44 294 265 81 124 117 117 239 80 92 137 174 150 154 152 236 166 177 159 164 167 133 129 122 119 102 112 119 99 77 59 29 14 18 23 18 14 7 10 5 2 6 358 353 350 355 356 359 357 357 3 2 2 2 2 3 3 2 2 5 5 4 2 360 357 357 356 356 353 349 349 349 343 339
19 29 333 9 347 346 5 346 22 6 16 89 142 251 66 335 25 333 93 73 63 62 119 251 170 166 196 159 168 189 177 179 168 143 140 142 116 108 101 96 99 91 73 13 354 356 14 7 1 5 9 353 349 357 348 347 342 348 355 351 354 351 351 351 349 352 351 357 357 355 355 356 357 0 359 355 354 355 355 354 353 351 348 344 344 341
280 73 335 9 18 302 33 13 33 328 338 16 345 15 359 106 102 51 191 198 142 155 77 183 138 240 206 171 182 177 168 159 159 158 157 150 128 126 112 112 110 112 111 359 353 2 353 350 357 348 5 344 341 342 341 337 335 341 337 344 338 339 339 345 345 347 350 345 346 345 344 350 352 352 354 351 351 354 353 351 348 347 348 348 342 341
298 288 57 322 17 12 33 11 21 357 353 344 15 10 6 358 212 142 30 73 110 156 147 142 313 245 314 132 158 151 156 156 164 165 154 150 135 127 126 123 128 110 132 183 303 352 326 330 346 328 342 333 322 334 337 332 330 316 325 328 330 336 334 344 338 342 337 335 336 343 341 343 345 346 348 348 347 352 348 346 347 345 345 339 343 342
17 3 57 326 12 43 71 30 334 351 331 334 5 43 322 359 9 46 338 65 45 87 207 96 220 128 205 1 111 134 138 138 169 159 201 159 140 141 145 161 165 150 182 203 239 302 282 292 309 303 318 330 329 327 336 315 327 319 319 314 320 325 324 336 330 336 329 329 326 335 332 335 335 333 338 343 340 346 345 344 345 341 342 343 339 342
89 263 338 43 43 79 91 25 344 1 316 299 39 353 351 4 12 22 107 294 51 53 164 201 87 262 208 141 94 124 142 149 168 156 236 186 165 153 162 188 195 167 190 215 222 245 255 261 274 281 294 310 307 304 312 312 314 312 308 314 316 325 316 327 316 314 321 319 324 324 323 326 329 332 334 337 335 340 340 339 338 341 341 339 339 338
272 32 5 160 89 113 109 280 308 60 32 359 40 26 14 30 10 350 285 217 63 267 34 39 28 241 267 91 120 111 143 176 169 195 207 219 203 153 177 196 237 214 198 214 220 220 244 258 269 303 305 305 303 301 301 299 296 300 302 299 315 319 312 320 313 313 318 317 314 315 317 320 321 328 328 331 330 334 334 334 336 336 337 335 336 335
33 345 78 285 333 288 300 330 327 304 64 57 20 10 38 354 11 295 165 278 32 4 152 89 235 287 247 138 126 174 174 196 224 213 188 214 215 179 176 191 228 247 224 235 235 235 259 276 294 276 282 289 289 295 294 296 295 295 296 301 306 302 298 303 304 310 312 313 313 314 315 315 319 323 324 324 324 327 329 331 333 334 334 333 333 333
61 327 10 61 55 48 353 340 311 323 328 287 70 1 41 38 12 13 41 351 34 277 5 167 261 240 179 189 203 218 214 235 230 219 199 189 207 189 178 207 231 250 253 251 247 251 262 252 256 275 282 286 281 282 284 286 289 290 290 292 293 299 301 299 299 301 305 304 307 306 308 310 315 317 317 316 318 319 323 325 327 330 330 330 329 328
96 46 50 71 104 159 220 298 25 357 332 5 296 353 346 67 35 39 196 298 196 280 249 244 230 266 210 212 224 218 216 224 230 218 200 215 215 184 180 209 227 242 254 253 243 232 248 274 264 264 268 265 272 272 273 275 280 285 284 286 291 288 289 290 294 297 301 298 297 299 297 300 301 302 302 302 303 306 311 314 318 322 323 324 324 323
32 78 26 32 262 254 297 267 303 327 262 253 287 280 282 263 193 84 166 183 187 20 301 330 4 351 266 229 206 221 221 217 221 222 220 218 215 201 205 230 250 264 268 269 264 255 257 255 263 266 268 271 269 271 271 266 267 271 277 279 282 288 288 284 287 290 292 293 294 293 293 289 291 291 289 288 290 295 298 301 308 310 311 315 316 317
55 50 281 357 266 245 261 266 271 276 267 252 262 265 266 258 257 229 230 233 326 181 212 269 358 322 270 287 306 295 232 214 208 208 196 195 181 172 242 251 262 266 267 269 265 260 255 260 256 261 265 267 272 275 275 274 276 277 276 275 277 283 281 279 282 284 286 289 288 287 286 289 289 289 287 287 290 292 294 296 297 299 301 303 304 303
109 75 251 153 288 293 265 245 234 245 265 271 251 252 255 250 240 224 238 222 203 237 257 287 298 277 270 266 260 266 283 285 227 121 127 192 224 223 231 239 246 255 262 265 268 265 257 254 256 257 263 268 269 272 274 277 273 269 270 272 275 278 278 284 281 282 288 287 285 285 285 286 288 289 289 288 289 289 292 295 296 297 297 296 295 295
78 206 226 329 323 287 287 196 248 232 247 270 254 242 244 244 256 239 246 245 223 265 259 263 273 282 274 234 254 254 247 249 119 173 206 222 225 229 233 240 245 253 259 263 267 267 260 256 255 261 264 265 268 269 272 270 269 268 267 269 272 273 276 278 281 283 281 284 287 287 286 289 288 288 288 286 284 286 290 294 295 294 294 294 294 295
31 256 82 265 359 302 335 310 274 277 280 266 276 260 238 223 241 237 221 211 181 225 182 174 278 252 269 279 242 239 240 229 204 218 231 238 232 233 237 240 246 255 264 269 271 272 272 264 260 260 262 265 266 269 271 273 269 271 270 269 271 273 277 278 277 280 281 282 286 287 288 287 288 289 288 287 285 285 288 290 293 293 293 294 295 293
31 317 345 10 360 261 284 306 293 310 314 312 293 251 215 212 217 271 253 225 221 192 196 190 227 226 238 2 11 316 264 263 246 232 246 252 244 236 238 242 248 258 266 270 272 273 270 267 260 256 260 263 262 264 262 264 273 269 268 273 272 277 280 278 278 279 282 284 285 286 286 288 289 289 289 287 285 285 287 291 291 292 293 291 291 292
301 7 305 135 357 287 286 273 312 13 5 250 220 223 140 176 198 222 240 223 222 177 220 216 247 282 277 283 225 256 261 247 234 237 213 214 236 261 266 260 258 260 266 267 265 267 271 271 266 257 251 252 256 258 264 262 263 268 266 269 274 273 275 278 279 278 280 283 285 286 288 289 290 289 289 289 288 287 288 289 289 288 287 287 287 286
39 334 248 284 193 281 313 321 22 332 238 223 224 218 187 192 189 204 234 241 224 220 240 264 264 263 257 262 271 264 250 257 263 268 261 249 235 235 244 250 254 257 260 264 266 269 274 274 273 273 278 275 271 268 272 276 270 276 279 274 277 273 278 280 282 282 282 285 288 290 291 291 291 290 291 291 289 287 286 285 286 285 285 284 284 287
259 20 311 292 218 294 330 358 7 240 270 308 322 86 95 73 76 18 286 245 237 217 218 234 244 249 257 261 256 246 251 253 289 275 255 256 247 251 258 258 259 257 256 247 260 277 285 281 275 274 273 270 274 274 269 272 276 277 275 274 272 279 281 282 282 283 287 288 291 293 293 293 293 293 293 292 290 287 286 285 284 286 286 285 286 285
308 282 323 301 248 214 248 221 227 302 318 329 57 16 307 220 244 179 250 277 219 235 228 242 251 256 266 270 259 264 276 49 317 275 266 253 249 242 242 251 251 256 255 264 265 277 274 274 277 275 276 275 271 273 274 274 276 276 280 281 278 279 282 282 283 285 288 289 292 293 294 295 294 293 292 291 290 288 286 287 287 286 286 287 289 292
291 294 351 51 303 120 324 313 319 326 285 270 196 259 338 117 121 127 60 281 231 250 232 222 233 230 246 278 292 294 67 347 281 272 253 244 237 244 249 243 252 255 262 267 271 272 274 275 275 275 272 273 272 269 275 280 279 281 282 281 282 283 282 282 283 285 286 288 291 292 293 293 292 291 291 290 289 289 288 287 287 286 290 292 296 294
346 333 311 287 293 10 36 206 248 256 244 178 211 200 127 359 118 259 19 286 261 241 235 197 214 238 240 253 275 186 288 266 266 266 256 194 214 224 240 247 246 251 254 255 256 264 265 264 262 266 272 274 277 277 276 277 278 280 280 281 283 282 283 283 285 286 287 287 289 291 291 291 290 289 290 290 289 290 290 291 291 294 294 293 292 290
222 183 173 206 236 211 224 246 246 220 256 232 163 181 189 163 79 57 344 278 273 262 144 139 170 203 243 266 272 247 220 263 271 256 208 223 223 227 232 257 263 266 267 262 261 254 257 261 275 278 274 274 272 274 276 277 277 275 275 278 280 281 280 283 284 286 287 290 291 291 289 289 289 289 290 291 291 292 292 295 296 295 295 293 291 291
182 215 200 225 207 225 219 259 291 277 265 207 181 157 153 131 90 111 225 239 218 188 234 145 203 201 219 250 238 254 231 237 261 264 259 285 312 300 286 271 264 260 268 268 262 259 264 262 257 262 264 266 270 272 273 275 276 277 275 277 281 278 280 284 287 289 291 292 292 290 290 290 291 293 292 292 293 294 294 294 292 293 292 290 288 286
254 205 245 209 230 214 211 227 241 266 252 195 171 150 152 85 228 214 235 199 170 204 227 194 210 222 224 229 234 240 254 251 262 277 289 289 278 273 270 268 274 277 269 264 265 265 264 261 261 267 270 267 265 266 268 272 276 278 279 280 277 278 284 287 287 288 289 289 288 288 291 293 294 293 293 293 293 292 290 289 287 286 286 286 286 286
196 153 213 195 203 193 199 251 313 288 295 127 124 93 197 159 230 208 182 278 187 208 205 234 215 238 221 253 238 249 259 265 267 272 273 276 274 274 273 273 272 272 274 274 274 265 263 272 271 267 264 263 262 264 265 265 273 278 280 279 278 284 286 286 286 285 286 286 287 290 291 292 292 291 291 290 289 288 287 286 286 285 285 286 286 285
187 154 229 221 173 161 171 189 214 215 161 154 141 180 202 210 195 152 158 273 223 210 225 231 238 230 239 243 255 261 256 264 269 267 272 269 268 269 269 268 268 268 269 264 258 263 260 265 269 273 272 267 263 262 261 264 272 276 278 277 284 287 286 286 285 286 287 289 290 292 291 290 290 288 288 287 287 286 285 286 286 285 286 285 284 285
194 204 180 209 199 190 207 220 243 207 169 197 204 210 184 214 239 228 186 218 249 263 229 244 248 252 242 252 257 254 268 249 254 255 259 264 262 261 263 264 264 267 268 271 270 268 265 265 270 271 272 268 266 269 270 261 266 274 279 283 290 288 290 289 289 290 291 292 293 293 292 292 290 290 288 286 287 287 287 287 287 287 285 284 284 283
238 212 52 37 251 277 269 259 272 255 209 214 238 248 274 257 240 246 249 265 238 243 237 251 262 262 264 254 268 266 255 267 268 267 265 265 262 263 263 268 269 268 269 270 272 271 269 269 270 271 275 279 273 272 271 267 259 271 278 288 290 291 289 289 291 291 292 293 295 295 295 295 293 289 288 288 286 285 285 287 288 286 286 286 284 285
237 214 210 227 260 37 280 156 225 245 254 252 250 251 249 243 247 246 256 249 258 256 259 255 254 256 254 258 257 266 270 268 270 268 267 270 266 265 265 264 264 260 261 265 265 269 273 273 275 276 277 281 281 279 276 270 270 272 285 287 287 286 286 289 293 295 296 297 298 297 296 295 295 294 293 292 292 289 287 286 285 286 287 287 286 286
306 171 208 241 237 215 251 249 263 242 259 256 250 263 264 264 262 251 239 242 248 252 248 254 257 263 261 265 259 263 267 266 268 271 270 268 269 269 269 266 266 267 260 255 262 263 267 266 268 274 279 280 281 283 285 286 286 287 287 287 286 285 291 296 298 298 299 299 299 297 296 295 295 296 296 295 293 292 290 286 286 287 286 287 287 288
188 82 231 159 213 254 280 270 262 269 263 265 265 261 258 258 261 266 265 264 263 263 261 261 238 248 247 253 260 262 270 267 262 267 270 273 274 273 270 268 265 262 265 268 266 257 255 259 266 270 273 275 280 287 289 288 287 284 283 285 289 298 303 301 300 299 298 298 298 296 296 296 296 295 294 293 291 286 285 287 288 287 285 282 282 281
111 247 237 346 276 261 242 260 281 308 282 237 239 246 253 255 253 258 266 272 270 269 267 267 265 251 252 255 257 258 260 267 267 266 268 268 270 272 273 272 271 270 270 269 272 267 265 263 262 271 274 278 285 287 287 284 280 280 286 293 298 305 304 302 301 299 298 298 297 297 297 297 295 293 292 292 291 291 288 282 281 284 285 288 287 288
208 237 202 208 221 255 248 247 243 240 267 259 256 246 228 228 224 256 263 266 267 263 263 268 277 277 265 260 252 256 261 263 268 267 267 267 270 270 270 271 275 277 277 278 280 280 273 272 271 272 277 282 286 284 280 280 286 295 294 296 299 301 298 298 298 297 298 299 297 296 296 295 293 292 291 290 290 290 289 293 287 285 288 288 289 291